Flag for Canada Weather past 2 weeks in Richmond Hill, Ontario, Canada

Now
82 °F

Partly sunny.


Feels Like: 85 °F
Forecast: 56 / 82 °F
Wind: 13 mph from Southwest

Location: Toronto Buttonville

Current Time: May 30, 2015 at 1:04:57 PM

Latest Report: May 30, 2015 at 12:00 PM


Visibility: 15 mi

Pressure: 29.92 "Hg

Humidity: 58%

Dew point: 66 °F

Location of Richmond HillLocation

Historic Weather in Richmond Hill — Graph

°F

Richmond Hill temperature yesterday

Maximum temperature yesterday: 79 °F (at 1:00 PM)
Minimum temperature yesterday: 55 °F (at 6:00 AM)
Average temperature yesterday: 68 °F

Past Weeks' High & Low Weather Summary

 TemperatureHumidityPressure
High82 °F (May 18, 2:00 PM)88% (May 16, 5:00 AM)30.42 "Hg (May 16, 5:00 AM)
Low37 °F (May 20, 6:00 AM)19% (May 23, 4:00 PM)29.83 "Hg (May 21, 5:00 PM)
Average64 °F57%30.07 "Hg
* Reported May 15 12:00 Noon — May 30 12:00 Noon, Richmond Hill, Weather by CustomWeather, © 2015

Note: Actual official high and low records may vary slightly from our data, if they occured in-between our weather recording intervals... More about our weather records

Advertising

Richmond Hill weather history for previous 24 hours

 ConditionsComfort  
Time TempWeatherWind HumidityBarometerVisibility
12:00 PM
Sat, May 30
82 °FPartly sunny.13 mph58%29.92 "Hg15 mi
11:00 AM82 °FPartly sunny.14 mph58%29.94 "Hg15 mi
10:00 AM79 °FScattered clouds.13 mph61%29.95 "Hg15 mi
9:00 AM75 °FBroken clouds.9 mph74%29.96 "Hg12 mi
8:00 AM72 °FPartly sunny.9 mph78%29.96 "Hg12 mi
7:00 AM70 °FPartly sunny.6 mph78%29.96 "Hg15 mi
6:00 AM68 °FPassing clouds.7 mph83%29.95 "Hg15 mi
5:00 AM68 °FPassing clouds.7 mph83%29.95 "Hg15 mi
4:00 AM68 °FPassing clouds.7 mph78%29.95 "Hg15 mi
3:00 AM66 °FPassing clouds.3 mph73%29.96 "Hg15 mi
2:00 AM64 °FPassing clouds.No wind68%29.98 "Hg15 mi
1:00 AM64 °FPartly cloudy.No wind68%29.99 "Hg15 mi
12:00 AM64 °FPassing clouds.5 mph68%30.02 "Hg15 mi
11:00 PM
Fri, May 29
64 °FPassing clouds.5 mph68%30.03 "Hg15 mi
10:00 PM66 °FPassing clouds.6 mph64%30.04 "Hg15 mi
9:00 PM68 °FPartly sunny.9 mph60%30.04 "Hg15 mi
8:00 PM70 °FPartly sunny.9 mph57%30.06 "Hg15 mi
7:00 PM70 °FBroken clouds.12 mph57%30.07 "Hg14 mi
6:00 PM72 °FPartly sunny.13 mph53%30.09 "Hg14 mi
5:00 PM75 °FBroken clouds.13 mph44%30.12 "Hg15 mi
4:00 PM75 °FScattered clouds.10 mph47%30.14 "Hg14 mi
3:00 PM77 °FPartly sunny.12 mph44%30.16 "Hg12 mi
2:00 PM77 °FPleasantly warm.7 mph39%30.18 "HgN/A
1:00 PM79 °FPleasantly warm.6 mph32%30.19 "HgN/A
Weather by CustomWeather, © 2015

See weather overviewHow to use our weather pages